[[{"header":{"parameterUnit":"m.s-1","parameterCategory":1,"la1":30.2991,"la2":30.254,"lo1":-89.0895,"lo2":-89.0444,"dx":0.0017,"dy":0.0017,"nx":28,"ny":28,"refTime":"2022-12-13T09:00:00:Z","depth":0,"parameterNumber":2,"parameterNumberName":"U-component_of_WINDS"},"data":[0,0,0,0,0,0,0,0,0,0,0,0,0,0,0,0,0,0,0,0,0,0,0,0,0,0,0,0,0,0,0,0,0,0,0,0,0,0,0,0,0,0,0,0,0,0,0,0,0,0,0,0,0,0,0,0,0,0,-1.6311,-1.6311,0,-1.6287,-1.6286,-1.6286,-1.6232,-1.6231,-1.623,-1.6229,-1.6205,-1.6205,-1.6206,0,0,0,0,0,0,0,0,0,0,0,0,0,-1.6314,-1.6314,-1.6311,-1.6311,-1.6311,-1.6287,-1.6286,-1.6286,-1.6232,-1.6231,-1.623,-1.6228,-1.6205,-1.6205,-1.6206,0,0,0,0,0,0,0,0,0,0,0,0,0,-1.6304,-1.6314,-1.6311,-1.6281,-1.6278,-1.6287,-1.6286,-1.6286,-1.6233,-1.6231,-1.6229,-1.6228,-1.6205,-1.6205,-1.6206,-1.6242,0,0,-1.6208,-1.6208,0,0,0,0,0,0,0,0,-1.6304,-1.6304,-1.6286,-1.6283,-1.628,-1.6261,-1.6278,-1.6271,-1.6233,-1.625,-1.6229,-1.6227,-1.6225,-1.6224,-1.6223,-1.6241,-1.624,-1.6208,-1.6208,-1.6208,-1.6208,0,0,0,0,0,0,0,-1.6305,-1.6304,-1.6301,-1.6285,-1.6282,-1.6269,-1.6266,-1.6277,-1.6247,-1.6248,-1.6244,-1.6242,-1.6223,-1.6222,-1.6222,-1.624,-1.6208,-1.6208,-1.6209,-1.6209,-1.6291,-1.6293,0,0,0,0,0,0,-1.631,-1.6305,-1.6302,-1.6301,-1.6288,-1.6271,-1.6267,-1.6268,-1.6247,-1.6242,-1.6244,-1.624,-1.6222,-1.6221,-1.6221,-1.6265,-1.6208,-1.6209,-1.6209,-1.6289,-1.6291,-1.6293,0,0,0,0,0,0,-1.631,-1.631,-1.6303,-1.6302,-1.63,-1.6272,-1.6275,-1.6269,-1.6268,-1.6243,-1.6238,-1.6248,-1.6221,-1.622,-1.6238,-1.6263,-1.6209,-1.621,-1.6287,-1.629,-1.6292,-1.6353,0,0,0,0,0,0,-1.6311,-1.6311,-1.6324,-1.6303,-1.63,-1.632,-1.6276,-1.627,-1.6269,-1.6264,-1.6246,-1.6242,-1.622,-1.6238,-1.6239,-1.6263,-1.621,-1.6285,-1.6288,-1.6292,-1.6348,-1.6357,-1.6364,0,0,0,0,0,-1.6311,-1.6341,-1.6324,-1.6324,-1.6316,-1.6322,-1.6321,-1.6294,-1.6271,-1.6285,-1.6269,-1.6242,-1.626,-1.624,-1.6241,-1.6266,-1.6283,-1.6287,-1.6291,-1.6345,-1.6355,-1.6364,0,0,0,0,0,0,-1.6365,-1.6338,-1.6319,-1.6343,-1.6335,-1.6313,-1.6329,-1.6306,-1.6305,-1.63,-1.6268,-1.6264,-1.6288,-1.6278,-1.6256,-1.6302,-1.6267,-1.6272,-1.6308,-1.6318,-1.6326,-1.6329,-1.6211,0,0,0,0,0,-1.638,-1.6387,-1.6362,-1.6386,-1.6383,-1.6357,-1.6358,-1.6339,-1.633,-1.6326,-1.6312,-1.6304,-1.6309,-1.6312,-1.6314,-1.6346,-1.6343,-1.6364,-1.6372,-1.6379,-1.6384,-1.6403,-1.6413,-1.6307,-1.6307,-1.6307,0,0,-1.6411,-1.6396,-1.6403,-1.6397,-1.6388,-1.6398,-1.6354,-1.6365,-1.6372,-1.6328,-1.6345,-1.6334,-1.6324,-1.635,-1.6361,-1.6343,-1.6412,-1.6384,-1.639,-1.6391,-1.6409,-1.6419,-1.6428,-1.631,-1.6309,-1.6309,0,0,-1.6472,-1.6461,-1.6481,-1.6474,-1.6462,-1.6445,-1.645,-1.6431,-1.6422,-1.6439,-1.6407,-1.6415,-1.6422,-1.6417,-1.6415,-1.6477,-1.6454,-1.6479,-1.6522,-1.6542,-1.655,-1.6557,-1.6583,-1.6592,-1.6483,-1.6483,-1.6483,0,-1.6512,-1.6524,-1.6494,-1.6508,-1.6507,-1.6468,-1.6489,-1.6484,-1.6473,-1.6475,-1.6454,-1.6464,-1.6454,-1.6481,-1.6496,-1.6495,-1.6501,-1.6482,-1.6551,-1.6558,-1.6565,-1.6588,-1.6598,-1.6487,-1.6486,-1.6486,-1.6486,0,-1.6575,-1.6584,-1.6602,-1.6594,-1.6595,-1.6612,-1.6586,-1.6591,-1.6572,-1.6557,-1.6576,-1.6563,-1.6564,-1.6568,-1.6548,-1.6592,-1.6582,-1.6557,-1.6522,-1.6579,-1.6601,-1.6609,-1.6492,-1.649,-1.6489,-1.6489,0,0,-1.6671,-1.6647,-1.6654,-1.6652,-1.6636,-1.6643,-1.666,-1.666,-1.6667,-1.6661,-1.6676,-1.6683,-1.6661,-1.6659,-1.6639,-1.6656,-1.671,-1.6629,-1.6628,-1.6647,-1.6761,-1.6783,-1.6794,-1.6693,-1.6695,-1.6696,-1.6763,0,-1.6731,-1.6758,-1.6732,-1.6765,-1.6774,-1.6737,-1.6752,-1.6745,-1.6732,-1.6739,-1.6725,-1.6732,-1.67,-1.67,-1.6714,-1.67,-1.6733,-1.6695,-1.6709,-1.671,-1.6716,-1.6804,-1.6826,-1.6891,-1.6771,-1.6773,-1.6774,0,-1.6804,-1.6804,-1.6837,-1.6823,-1.6826,-1.6839,-1.684,-1.6846,-1.6838,-1.6827,-1.6827,-1.6803,-1.682,-1.6784,-1.6808,-1.6783,-1.6787,-1.6782,-1.6783,-1.6786,-1.6748,-1.6813,-1.691,-1.6921,-1.6786,-1.6785,-1.6784,0,-1.6875,-1.6882,-1.6904,-1.6902,-1.6885,-1.6896,-1.6889,-1.6879,-1.6882,-1.6882,-1.6885,-1.6886,-1.6888,-1.6891,-1.6869,-1.6844,-1.6897,-1.6859,-1.6891,-1.6892,-1.6906,-1.6906,-1.7009,-1.6904,-1.6904,-1.6904,-1.6903,0,-1.6947,-1.697,-1.6936,-1.695,-1.6975,-1.6946,-1.6972,-1.6962,-1.6954,-1.6966,-1.6934,-1.6946,-1.6915,-1.6924,-1.6907,-1.6932,-1.6932,-1.6926,-1.6922,-1.6931,-1.6932,-1.6935,-1.6931,-1.6906,-1.6906,-1.6905,-1.6905,0,-1.7031,-1.7009,-1.7031,-1.7013,-1.7009,-1.7029,-1.7014,-1.7027,-1.7012,-1.7028,-1.7031,-1.7008,-1.7018,-1.6995,-1.7001,-1.699,-1.7027,-1.7013,-1.703,-1.7027,-1.7063,-1.7061,-1.7174,-1.7188,-1.7071,-1.7072,-1.7073,0,-1.708,-1.7097,-1.7081,-1.7087,-1.7083,-1.7092,-1.7096,-1.7068,-1.7073,-1.7066,-1.7081,-1.7088,-1.7093,-1.7111,-1.7096,-1.7101,-1.709,-1.7129,-1.7091,-1.7101,-1.7095,-1.7096,-1.7099,-1.7138,-1.7139,-1.7141,-1.7142,0,-1.717,-1.7159,-1.7164,-1.7167,-1.7172,-1.7173,-1.7171,-1.7178,-1.7148,-1.7156,-1.7166,-1.717,-1.7177,-1.7186,-1.7189,-1.7183,-1.7159,-1.7153,-1.7162,-1.7173,-1.7183,-1.7182,-1.7055,-1.7152,-1.7151,-1.715,-1.7149,-1.7149,-1.724,-1.7255,-1.7247,-1.7255,-1.7251,-1.7251,-1.7264,-1.7251,-1.7258,-1.7263,-1.7245,-1.726,-1.7254,-1.7255,-1.7252,-1.7265,-1.7247,-1.7258,-1.7262,-1.7266,-1.7274,-1.7179,-1.7264,-1.7264,-1.7264,-1.7263,-1.7263,0,-1.7332,-1.7325,-1.7333,-1.7332,-1.734,-1.7315,-1.7312,-1.7321,-1.7334,-1.733,-1.7336,-1.7349,-1.7358,-1.7344,-1.7351,-1.7364,-1.7353,-1.7367,-1.7367,-1.7367,-1.7287,-1.7281,-1.7376,-1.7376,-1.7376,-1.7376,-1.7376,-1.7376,-1.738,-1.7405,-1.7393,-1.7417,-1.741,-1.7424,-1.7426,-1.7426,-1.7423,-1.744,-1.7447,-1.7437,-1.7431,-1.7437,-1.7445,-1.7441,-1.7446,-1.7465,-1.7457,-1.7383,-1.7372,-1.7362,-1.7356,-1.7466,-1.7466,-1.7537,-1.7538,-1.7538]},{"header":{"parameterUnit":"m.s-1","parameterCategory":1,"la1":30.2991,"la2":30.254,"lo1":-89.0895,"lo2":-89.0444,"dx":0.0017,"dy":0.0017,"nx":28,"ny":28,"refTime":"2022-12-13T09:00:00:Z","depth":0,"parameterNumber":3,"parameterNumberName":"V-component_of_WINDS"},"data":[0,0,0,0,0,0,0,0,0,0,0,0,0,0,0,0,0,0,0,0,0,0,0,0,0,0,0,0,0,0,0,0,0,0,0,0,0,0,0,0,0,0,0,0,0,0,0,0,0,0,0,0,0,0,0,0,0,0,-0.0289,-0.0291,0,-0.0499,-0.0501,-0.0504,-0.0616,-0.0616,-0.0616,-0.0616,-0.0833,-0.0838,-0.0844,0,0,0,0,0,0,0,0,0,0,0,0,0,0.0015,0.001,-0.0289,-0.0291,-0.0294,-0.0499,-0.0502,-0.0504,-0.0616,-0.0616,-0.0616,-0.0616,-0.0831,-0.0837,-0.0844,0,0,0,0,0,0,0,0,0,0,0,0,0,-0.0148,0.0008,-0.0288,-0.0374,-0.0384,-0.0498,-0.0502,-0.0505,-0.0616,-0.0616,-0.0616,-0.0616,-0.0829,-0.0837,-0.0845,-0.089,0,0,-0.0871,-0.0874,0,0,0,0,0,0,0,0,-0.0139,-0.0159,-0.0359,-0.0368,-0.0379,-0.0531,-0.0474,-0.0634,-0.0615,-0.0528,-0.0616,-0.0617,-0.0732,-0.0749,-0.0787,-0.09,-0.091,-0.0871,-0.0876,-0.088,-0.0882,0,0,0,0,0,0,0,-0.0127,-0.0151,-0.0372,-0.0362,-0.0374,-0.0403,-0.0426,-0.0505,-0.0626,-0.0535,-0.0544,-0.0567,-0.0738,-0.0779,-0.0793,-0.0913,-0.0871,-0.0878,-0.0884,-0.0887,-0.1075,-0.1075,0,0,0,0,0,0,-0.0102,-0.0141,-0.0365,-0.0378,-0.0257,-0.0408,-0.0434,-0.0482,-0.0625,-0.0647,-0.0567,-0.0572,-0.0765,-0.0783,-0.0801,-0.0865,-0.088,-0.0888,-0.0892,-0.1075,-0.1075,-0.1075,0,0,0,0,0,0,-0.0095,-0.0121,-0.0357,-0.0262,-0.0294,-0.0413,-0.0466,-0.0486,-0.0528,-0.0649,-0.0671,-0.0586,-0.0766,-0.079,-0.0868,-0.0874,-0.0891,-0.0899,-0.1075,-0.1075,-0.1075,-0.0992,0,0,0,0,0,0,-0.0086,-0.0118,-0.0136,-0.0261,-0.0299,-0.0419,-0.0466,-0.049,-0.0541,-0.055,-0.0673,-0.0694,-0.0768,-0.0854,-0.0876,-0.0886,-0.0906,-0.1075,-0.1075,-0.1075,-0.0994,-0.0989,-0.0984,0,0,0,0,0,-0.0075,-0.0104,-0.0136,-0.0163,-0.0324,-0.0419,-0.044,-0.0524,-0.0541,-0.0561,-0.0639,-0.069,-0.0869,-0.0862,-0.0887,-0.0899,-0.1075,-0.1075,-0.1075,-0.0997,-0.099,-0.0984,0,0,0,0,0,0,0.0024,-0.0122,-0.0159,-0.023,-0.0311,-0.0438,-0.0465,-0.0514,-0.0593,-0.0597,-0.0698,-0.0725,-0.0794,-0.0855,-0.0843,-0.0951,-0.0978,-0.0983,-0.0909,-0.0904,-0.0899,-0.0884,-0.0912,0,0,0,0,0,0.0037,-0.0027,-0.0151,-0.0202,-0.0241,-0.0345,-0.039,-0.0448,-0.0536,-0.0571,-0.0655,-0.0739,-0.0815,-0.0863,-0.0939,-0.1003,-0.1032,-0.1024,-0.1019,-0.1014,-0.1018,-0.1058,-0.1056,-0.1075,-0.1075,-0.1075,0,0,0.0065,-0.0023,-0.0058,-0.0184,-0.0254,-0.032,-0.0374,-0.044,-0.049,-0.0582,-0.0661,-0.0725,-0.0826,-0.0897,-0.0933,-0.095,-0.1019,-0.1014,-0.1009,-0.1016,-0.1057,-0.1055,-0.1054,-0.1075,-0.1075,-0.1075,0,0,0.008,0.0008,-0.0043,-0.0111,-0.0216,-0.0286,-0.0297,-0.0417,-0.0463,-0.0544,-0.0614,-0.0675,-0.0802,-0.0872,-0.0924,-0.0934,-0.0985,-0.0956,-0.093,-0.0967,-0.0966,-0.0965,-0.097,-0.0971,-0.0959,-0.0959,-0.0959,0,0.0127,0.0025,-0.0062,-0.0126,-0.018,-0.0265,-0.0317,-0.038,-0.0504,-0.054,-0.0556,-0.0719,-0.0793,-0.0882,-0.0885,-0.0923,-0.0941,-0.0943,-0.0959,-0.0959,-0.096,-0.0966,-0.0967,-0.0955,-0.0955,-0.0956,-0.0956,0,0.0087,0.0018,-0.001,-0.0128,-0.0185,-0.0242,-0.034,-0.0387,-0.0439,-0.0507,-0.0589,-0.068,-0.0777,-0.0802,-0.0854,-0.0899,-0.0907,-0.0939,-0.0968,-0.0952,-0.096,-0.0963,-0.0949,-0.0951,-0.0952,-0.0953,0,0,0.0158,-0.0008,-0.0017,-0.0072,-0.0194,-0.0249,-0.031,-0.0405,-0.0444,-0.0526,-0.0582,-0.0688,-0.0719,-0.0778,-0.0838,-0.0871,-0.0875,-0.09,-0.0904,-0.0894,-0.0933,-0.0908,-0.0909,-0.0908,-0.0909,-0.091,-0.0925,0,0.0155,0.004,-0.0041,-0.0124,-0.0189,-0.0271,-0.0325,-0.0405,-0.047,-0.0536,-0.0608,-0.0682,-0.0717,-0.0753,-0.0789,-0.0867,-0.0885,-0.0867,-0.0962,-0.0964,-0.0935,-0.0913,-0.0888,-0.0897,-0.0928,-0.0929,-0.0929,0,0.0135,0.0055,-0.0034,-0.015,-0.018,-0.0227,-0.0321,-0.0382,-0.0475,-0.052,-0.0585,-0.0647,-0.0717,-0.0738,-0.0835,-0.0821,-0.0865,-0.0909,-0.0911,-0.0925,-0.0946,-0.0927,-0.0902,-0.0904,-0.0934,-0.0934,-0.0933,0,0.0194,0.0064,-0.0007,-0.0051,-0.0187,-0.0218,-0.0277,-0.037,-0.0422,-0.0504,-0.0538,-0.0626,-0.0675,-0.0742,-0.0827,-0.0834,-0.0916,-0.0944,-0.0956,-0.0954,-0.0971,-0.0969,-0.0954,-0.0996,-0.0996,-0.0996,-0.0996,0,0.0198,0.0146,0.0017,-0.0026,-0.0087,-0.018,-0.0237,-0.0303,-0.0385,-0.0444,-0.0519,-0.0572,-0.0679,-0.0746,-0.0812,-0.0883,-0.0904,-0.0943,-0.0961,-0.0938,-0.0933,-0.0969,-0.0971,-0.0996,-0.0996,-0.0996,-0.0996,0,0.0252,0.0164,0.0081,-0.004,-0.0072,-0.0112,-0.0217,-0.0263,-0.0331,-0.0404,-0.0426,-0.0534,-0.0616,-0.0706,-0.0819,-0.0863,-0.0931,-0.0955,-0.09,-0.091,-0.0917,-0.0916,-0.0926,-0.0933,-0.0968,-0.0967,-0.0967,0,0.026,0.0218,0.0091,0.0047,-0.0009,-0.0079,-0.0133,-0.0225,-0.0277,-0.0387,-0.042,-0.0507,-0.0583,-0.071,-0.0799,-0.0885,-0.0913,-0.091,-0.0926,-0.0902,-0.0915,-0.0912,-0.0917,-0.0906,-0.0905,-0.0904,-0.0904,0,0.0282,0.024,0.0167,0.0078,0.0017,-0.0058,-0.0135,-0.0167,-0.0275,-0.033,-0.0415,-0.0473,-0.0588,-0.0674,-0.0772,-0.0833,-0.0887,-0.0898,-0.0905,-0.0883,-0.085,-0.087,-0.0888,-0.0897,-0.0898,-0.0899,-0.0899,-0.0899,0.0311,0.0269,0.0174,0.0094,0.0027,-0.0044,-0.0093,-0.0168,-0.024,-0.034,-0.039,-0.0475,-0.0568,-0.0704,-0.0763,-0.0831,-0.0848,-0.0859,-0.0862,-0.0864,-0.0858,-0.0837,-0.0849,-0.0849,-0.085,-0.085,-0.085,0,0.0328,0.0262,0.019,0.0084,0.0022,-0.0023,-0.0111,-0.0161,-0.0234,-0.0316,-0.0388,-0.0486,-0.057,-0.0665,-0.0755,-0.0791,-0.0818,-0.0812,-0.0811,-0.0825,-0.0837,-0.0822,-0.0789,-0.0789,-0.0789,-0.0789,-0.0789,-0.0789,0.0329,0.0256,0.0203,0.0096,0.003,-0.0053,-0.0099,-0.0165,-0.0231,-0.0337,-0.0407,-0.0468,-0.0556,-0.0653,-0.0732,-0.0758,-0.0789,-0.0775,-0.0808,-0.0819,-0.0824,-0.0828,-0.0815,-0.0781,-0.0781,-0.0791,-0.0791,-0.0791]}]]